Weather History for KAPF - May, 2012

Change the Weather History Date:

Saturday, May 5, 2012

  Actual Average Record
Temperature  
Mean Temperature 76 °F 76 °F  
Max Temperature 83 °F 87 °F 92 °F (1989)
Min Temperature 69 °F 66 °F 51 °F (2001)
Degree Days  
Heating Degree Days 0 0  
Month to date heating degree days 0 0  
Since 1 July heating degree days 121 260  
Cooling Degree Days 11 11  
Month to date cooling degree days 67 55  
Year to date cooling degree days 881 675  
Growing Degree Days 26 (Base 50)    
Moisture  
Dew Point 69 °F    
Average Humidity 78    
Maximum Humidity 90    
Minimum Humidity 65    
Precipitation  
Precipitation 0.00 in 0.08 in 2.26 in (1978)
Month to date precipitation 0.79 0.36  
Year to date precipitation 7.64 9.05  
Snow  
Snow 0.00 in - - ()
Month to date snowfall 0.0  
Since 1 July snowfall 0.0  
Snow Depth 0.00 in    
Sea Level Pressure  
Sea Level Pressure 29.99 in    
Wind  
Wind Speed 6 mph (South)    
Max Wind Speed 12 mph    
Max Gust Speed 18 mph    
Visibility 10 miles    
Events      
T = Trace of Precipitation, MM = Missing Value Source: NWS Daily Summary

Daily Weather History Graph

Daily Weather History Graph

Search for Another Location

Airport or City:

Trip Planner

Search our weather history database for the weather conditions in past years. The results will help you decide how hot, cold, wet, or windy it might be!

Date:

Astronomy

May. 05, 2012 Rise Set
Actual Time 6:46 AM EDT 8:01 PM EDT
Civil Twilight 6:22 AM EDT 8:25 PM EDT
Nautical Twilight 5:52 AM EDT 8:55 PM EDT
Astronomical Twilight 5:22 AM EDT 9:25 PM EDT
Moon 7:49 PM EDT (5/5) 6:06 AM EDT (5/5)
Length of Visible Light 14h 03m
Length of Day
13h 14m
Full, 100% of the Moon is Illuminated
May 5
Full
May 5
Full
May 12
Last Quarter
May 20
New
May 28
First Quarter

Hourly Weather History & Observations

Time (EDT) Temp. Heat Index Dew Point Humidity Pressure Visibility Wind Dir Wind Speed Gust Speed Precip Events Conditions
12:53 AM 75.0 °F - 69.1 °F 82% 30.03 in 10.0 mi ESE 10.4 mph - N/A   Scattered Clouds
1:04 AM 75.2 °F - 68.0 °F 78% 30.03 in 10.0 mi ESE 6.9 mph - N/A   Mostly Cloudy
1:53 AM 73.9 °F - 66.9 °F 79% 30.01 in 10.0 mi SE 5.8 mph - N/A   Overcast
2:18 AM 73.4 °F - 66.2 °F 78% 30.00 in 10.0 mi ESE 6.9 mph - N/A   Overcast
2:53 AM 73.0 °F - 66.0 °F 79% 29.99 in 10.0 mi ESE 6.9 mph - N/A   Overcast
3:53 AM 71.1 °F - 66.0 °F 84% 29.98 in 10.0 mi East 3.5 mph - N/A   Clear
4:53 AM 70.0 °F - 66.0 °F 87% 29.97 in 10.0 mi SE 3.5 mph - N/A   Clear
5:53 AM 69.1 °F - 66.0 °F 90% 29.98 in 10.0 mi Calm Calm - N/A   Clear
6:53 AM 69.1 °F - 66.0 °F 90% 29.99 in 10.0 mi Calm Calm - N/A   Clear
7:53 AM 71.1 °F - 68.0 °F 90% 30.02 in 10.0 mi Calm Calm - N/A   Clear
8:53 AM 75.9 °F - 68.0 °F 76% 30.03 in 10.0 mi ENE 3.5 mph - N/A   Clear
9:53 AM 79.0 °F - 69.1 °F 72% 30.02 in 10.0 mi ESE 5.8 mph - N/A   Scattered Clouds
10:53 AM 80.1 °F 82.7 °F 68.0 °F 67% 30.02 in 10.0 mi SE 3.5 mph - N/A   Partly Cloudy
11:53 AM 80.1 °F 82.7 °F 68.0 °F 67% 30.02 in 10.0 mi WSW 8.1 mph - N/A   Mostly Cloudy
12:53 PM 82.0 °F 85.9 °F 70.0 °F 67% 30.02 in 10.0 mi West 11.5 mph - N/A   Partly Cloudy
1:53 PM 82.0 °F 85.9 °F 70.0 °F 67% 30.00 in 10.0 mi WSW 10.4 mph 18.4 mph N/A   Scattered Clouds
2:53 PM 81.0 °F 84.1 °F 69.1 °F 67% 29.99 in 10.0 mi SW 5.8 mph - N/A   Scattered Clouds
3:53 PM 82.0 °F 85.5 °F 69.1 °F 65% 29.97 in 10.0 mi WSW 9.2 mph - N/A   Scattered Clouds
4:53 PM 82.0 °F 85.9 °F 70.0 °F 67% 29.96 in 10.0 mi West 10.4 mph - N/A   Scattered Clouds
5:53 PM 81.0 °F 84.4 °F 70.0 °F 69% 29.95 in 10.0 mi West 9.2 mph - N/A   Clear
6:53 PM 80.1 °F 83.2 °F 70.0 °F 71% 29.94 in 10.0 mi West 6.9 mph - N/A   Clear
7:53 PM 78.1 °F - 69.1 °F 74% 29.95 in 10.0 mi West 4.6 mph - N/A   Clear
8:53 PM 77.0 °F - 70.0 °F 79% 29.96 in 10.0 mi WSW 3.5 mph - N/A   Clear
9:53 PM 77.0 °F - 70.0 °F 79% 29.96 in 10.0 mi SW 3.5 mph - N/A   Clear
10:53 PM 75.9 °F - 70.0 °F 82% 29.97 in 10.0 mi SSE 3.5 mph - N/A   Clear
11:51 PM 75.2 °F - 71.6 °F 89% 29.98 in 10.0 mi Calm Calm - N/A   Mostly Cloudy
11:53 PM 75.9 °F - 71.1 °F 85% 29.98 in 10.0 mi Calm Calm - N/A   Mostly Cloudy